Regional Weather Roundup
Issued by NWS Newport/Morehead, NC

Current Version | Previous Version | Graphics & Text | Print | Product List | Glossary Off
Versions: 1 2 3 4 5 6 7 8 9 10 11 12 13 14 15 16 17 18 19 20 21 22 23 24 25 26 27 28 29 30 31 32 33 34 35 36 37 38 39 40 41 42 43 44 45 46 47 48 49 50

000
ASUS42 KMHX 142110
RWRMHX
WEATHER ROUNDUP FOR EASTERN NORTH CAROLINA
NATIONAL WEATHER SERVICE NEWPORT/MOREHEAD CITY NC
500 PM EDT SUN SEP 14 2014

NOTE: "FAIR" INDICATES FEW OR NO CLOUDS BELOW 12,000 FEET
WITH NO SIGNIFICANT WEATHER AND/OR OBSTRUCTIONS TO VISIBILITY

NCZ015>017-031-032-045>047-102-103-142200-
NORTH COAST

CITY           SKY/WX    TMP DP  RH WIND       PRES   REMARKS
EDENTON        PTSUNNY   74  61  64 NE3       30.20S
ELIZABETH CITY PTSUNNY   72  57  59 NE13      30.20F
KITTY HAWK     CLOUDY    70  58  66 N7G16     30.18F
MANTEO         CLOUDY    70  59  68 N14       30.19F

$$

NCZ045>047-081-094-103-104-142200-
CENTRAL COAST

CITY           SKY/WX    TMP DP  RH WIND       PRES   REMARKS
FRISCO         CLOUDY    70  65  84 N9G20     30.17S
SWANQUARTER      N/A     73 N/A N/A NE9       30.15S

$$

NCZ095-097-098-100-101-142200-
SOUTHERN COAST

CITY           SKY/WX    TMP DP  RH WIND       PRES   REMARKS
BEAUFORT       CLOUDY    75  67  76 N10       30.17S
CEDAR ISLAND     N/A     73 N/A N/A N9        30.21S
JACKSONVILLE   CLOUDY    72  66  81 N10       30.18S
NEWPORT        NOT AVBL
PINEY ISLAND   CLOUDY    75  65  70 N9        30.17S
WILMINGTON     CLOUDY    74  66  76 NE8       30.17S


$$

NCZ011>013-027>030-043-044-078>080-089-090>093-098-142200-
COASTAL PLAIN

CITY           SKY/WX    TMP DP  RH WIND       PRES   REMARKS
AHOSKIE        PTSUNNY   71  60  69 NW5       30.22S
CLINTON        CLOUDY    73  64  74 CALM      30.20F
ELIZABETHTOWN  CLOUDY    70  63  78 CALM      30.19F
GOLDSBORO      CLOUDY    74  67  78 CALM      30.18S
GREENVILLE     PTSUNNY   73  63  68 N7        30.21S
HAVELOCK       CLOUDY    74  65  73 N9        30.19S
KENANSVILLE    NOT AVBL
KINSTON        CLOUDY    75  61  60 N5        30.20F
NEW BERN       CLOUDY    75  65  70 N5        30.20R
RICHLANDS      CLOUDY    72  64  78 NW3       30.19S
ROANOKE RAPIDS NOT AVBL
ROCKY MOUNT    CLOUDY    72  61  68 N8        30.21S
WASHINGTON     CLOUDY    74  63  68 N5        30.19F
WHITEVILLE     CLOUDY    70  65  82 CALM      30.19R

$$

AMZ130-135-150-152-154-156-158-170-250-252-270-ANZ085-086-088-633-658-670-142200-
MARINE OBSERVATIONS

STATION/POSITION TIME  TEMP    WIND        PRES    WAVE   SWELL
                       AIR SEA DIR/SP/G            HT/PER HT/PER
                 (UTC) (F)     (DEG/KT/KT) (MB)    (FT/S) (FT/S)
CHESAPEAKE LIGHT 2000   67      10/ 11/ 13 1023.7
BUOY 44014       2100   71 80  360/ 16/ 19 1021.6    5/ 7   3/ 7
DUCK             2100   69 77   10/ 15/ 18 1021.8
2E DUCK          2100                        N/A     4/ 8
OREGON INLET     2100   70 77   10/ 11/ 16 1021.9
BUOY 44095       2100      76                N/A     6/ 7
20E OREGON INLET NOT AVBL
HATTERAS CG      2100   72 80   20/ 14/ 19 1022.1
DIAMOND BUOY     2100   74     360/ 19/ 23 1020.6    4/ 4   2/11
CAPE LOOKOUT     2000   74      30/ 14/ 15 1021.4
BEAUFORT LAB     2100   74 81   10/  9/ 12 1021.2
30 SE NEW RIVER  2100   77 82   40/ 16/ 17 1021.1    3/ 5   2/ 8
5 SE WRIGHTSVILL 2000   72 82   20/ 12/ 14   N/A
BUOY 41002       1955   78 83  240/  8/ 10 1020.9    2/ 4   2/ 4
BUOY 41004       2100   79 83   50/  6/  8 1020.1    2/ 4   2/ 5

$$


USA.gov is the U.S. government's official web portal to all federal, state and local government web resources and services.